OOV-CUBE (TUBSAT-30)

Last updated on Mon Sep 15 2025 00:03:09 GMT+0000 (Coordinated Universal Time)

1 60240U 24128F 25257.02493747 .00002097 00000+0 17508-3 0 9997 2 60240 61.9945 107.2590 0057866 75.5176 285.2324 15.00783374 64638
UTC large
Height (km)
Speed (km/s)
/
Latitude / Longitude
Inclination (degrees)
Orbital Period (minutes)
Azimuth
Elevation
Range (km)
Doppler Factor

Next 0 passes for location: London (51.5072 / 0.1276)

Sorry there are no passes over London.